Regional Weather Roundup
Issued by NWS Goodland, KS

Home | Current Version | Previous Version | Text Only | Print | Product List | Glossary Off
Versions: 1 2 3 4 5 6 7 8 9 10 11 12 13 14 15 16 17 18 19 20 21 22 23 24 25 26 27 28 29 30 31 32 33 34 35 36 37 38 39 40 41 42 43 44 45 46 47 48 49 50

000
ASUS43 KGLD 011208
RWRGLD

GOODLAND FORECAST AREA HOURLY WEATHER ROUNDUP
NATIONAL WEATHER SERVICE GOODLAND KS
500 AM MST SUN FEB 01 2015

...OFFICIAL OBSERVATIONS...

CITY           SKY/WX    TMP DP  RH WIND       PRES   REMARKS
GOODLAND KS    PTCLDY    19  16  88 N21G31    30.04R WCI   3
HILL CITY KS   MIX PCPN  19  13  77 N29G38    30.02R WCI   0
IMPERIAL NEB   PTCLDY    14   8  77 N22G31    30.10R WCI  -4
MCCOOK NEB     CLOUDY    16   9  74 NW25G33   30.07R WCI  -3
AKRON CO       CLOUDY    21  19  92 N18G25    30.06R WCI   6
BURLINGTON CO  CLOUDY    23  18  81 N25G37    30.03R WCI   7
LIMON CO       CLOUDY    20  16  84 N20G26    30.05R WCI   4
$$

...UNOFFICIAL OBSERVATIONS...

CITY           SKY/WX    TMP DP  RH WIND       PRES   REMARKS
COLBY KS       CLOUDY    18  18 100 NW23G30   30.06R WCI   0
GOVE KS          N/A     20  32 100 MISG        N/A
NORTON KS      LGT SNOW  16   9  73 NW29G35   30.02R WCI  -4
SHARON SPRINGS   N/A     23  20  87 N17G25      N/A  WCI   9
KIT CARSON CO    N/A     24  19  81 MISG        N/A
YUMA CO          N/A     21  17  84 N17         N/A  WCI   7
$$


USA.gov is the U.S. government's official web portal to all federal, state and local government web resources and services.